Date,TemperatureHighF,TemperatureAvgF,TemperatureLowF,DewpointHighF,DewpointAvgF,DewpointLowF,HumidityHigh,HumidityAvg,HumidityLow,PressureMaxIn,PressureMinIn,WindSpeedMaxMPH,WindSpeedAvgMPH,GustSpeedMaxMPH,PrecipitationSumIn
2013-1-1,106.8,81.8,69.2,66.1,56.9,-99.9,81,49,15,29.85,29.68,8,2,15,0.00
2013-1-2,82.4,72.5,67.3,68.7,58.4,-99.9,93,65,41,30.00,29.68,7,3,16,0.00
2013-1-3,86.5,72.8,66.7,58.7,52.7,-99.9,71,52,32,30.00,29.94,9,3,13,0.00
2013-1-4,89.4,75.3,64.6,60.7,55.5,-99.9,83,54,31,30.03,29.85,8,4,17,0.00
2013-1-5,97.6,78.2,64.2,63.3,56.3,-99.9,86,53,26,30.00,29.83,8,4,17,0.00
2013-1-6,91.3,76.9,66.7,67.8,59.9,-99.9,91,60,34,30.12,29.94,8,3,17,0.00
2013-1-7,89.2,76.3,68.4,67.9,58.4,-99.9,88,59,38,30.15,29.88,9,3,15,0.00
2013-1-8,112.8,88.7,66.9,61.4,49.1,-99.9,80,35,12,29.88,29.41,10,4,23,0.00
2013-1-9,89.5,77.1,69.3,61.7,49.2,-99.9,70,41,18,29.68,29.29,8,4,23,0.00
2013-1-10,78.7,72.1,69.1,60.6,54.1,-99.9,71,55,42,29.80,29.65,7,3,14,0.00
2013-1-11,100.9,81.0,65.6,65.4,58.5,-99.9,89,52,27,29.80,29.59,8,3,15,0.00
2013-1-12,118.0,85.4,71.1,66.6,58.8,-99.9,80,48,11,29.85,29.59,8,3,17,0.00
2013-1-13,89.0,74.7,68.4,67.7,59.9,-99.9,90,64,41,29.83,29.62,7,3,14,0.04
2013-1-15,85.8,76.8,67.6,57.0,52.4,-99.9,69,45,30,30.03,29.91,9,4,17,0.46
2013-1-16,91.7,73.7,59.2,67.5,53.3,-99.9,97,57,27,29.91,29.80,8,2,15,0.00
2013-1-17,92.8,78.0,67.4,71.3,61.6,-99.9,98,63,36,29.85,29.65,8,3,17,0.00
2013-1-18,122.3,89.1,69.4,72.5,57.6,-99.9,96,50,10,29.68,29.44,9,3,17,0.16
2013-1-19,80.9,71.2,65.5,64.3,56.7,-99.9,93,63,43,29.94,29.71,7,3,16,0.12
2013-1-20,71.2,68.2,66.0,68.8,66.7,64.7,99,95,89,29.94,29.85,4,0,6,1.00
2013-1-21,88.8,74.5,67.3,73.8,61.9,-99.9,100,72,37,29.94,29.83,7,2,12,0.00
2013-1-22,97.0,76.7,65.0,73.1,62.6,-99.9,99,69,30,29.83,29.71,8,2,14,0.04
2013-1-23,77.2,71.0,68.0,69.0,62.2,-99.9,94,77,62,29.94,29.77,6,3,12,0.00
2013-1-24,88.4,74.0,67.5,69.1,62.2,-99.9,97,72,44,29.97,29.83,7,2,12,0.04
2013-1-25,91.6,76.8,66.6,77.0,63.1,-99.9,100,70,41,29.85,29.74,8,3,16,0.00
2013-1-26,91.1,78.0,71.9,74.7,65.7,-99.9,92,70,38,29.85,29.74,10,4,20,0.21
2013-1-27,75.0,71.4,69.1,72.4,69.1,-99.9,100,94,77,29.77,29.65,5,2,10,1.41
2013-1-28,70.5,68.4,67.3,70.5,67.0,-99.9,100,98,98,29.74,29.53,11,4,23,4.94
2013-1-29,88.9,73.1,65.9,74.4,64.0,-99.9,100,79,44,29.74,29.41,7,3,13,0.25
2013-1-30,86.5,73.3,67.5,68.3,62.3,-99.9,98,73,40,29.91,29.74,5,1,9,0.00
2013-1-31,94.9,79.2,70.2,69.9,64.5,-99.9,91,65,35,29.88,29.65,7,3,13,0.00
2013-2-1,94.4,71.5,63.7,72.9,65.7,-99.9,100,85,32,29.68,29.56,7,2,14,0.99
2013-2-2,71.9,61.8,58.5,64.8,56.2,-99.9,100,86,46,29.83,29.59,6,3,24,1.17
2013-2-3,81.3,67.1,56.5,58.2,51.4,-99.9,90,61,33,29.97,29.74,7,3,17,0.00
2013-2-4,85.7,69.3,59.5,66.1,55.9,-99.9,100,69,31,30.15,29.94,6,2,15,0.00
2013-2-5,87.1,70.4,59.9,68.8,55.2,-99.9,100,67,34,30.15,30.06,7,2,13,0.00
2013-2-6,86.0,73.0,60.7,69.1,54.6,-99.9,100,58,31,30.12,29.94,8,3,17,0.00
2013-2-7,90.4,73.7,58.8,66.3,56.4,51.6,99,60,29,30.06,29.91,8,3,15,0.00
2013-2-8,96.9,76.8,60.8,65.7,57.4,-99.9,96,57,26,30.06,29.88,7,3,14,0.00
2013-2-9,97.8,78.6,63.9,67.4,61.2,-99.9,97,61,26,30.03,29.83,7,3,15,0.00
2013-2-10,97.4,75.5,67.4,71.6,62.1,-99.9,99,70,31,30.03,29.83,7,2,13,0.16
2013-2-11,73.0,67.7,64.7,69.3,64.2,-99.9,100,92,71,30.03,29.94,5,2,10,0.21
2013-2-12,80.7,69.7,66.2,70.8,59.9,-99.9,100,77,49,30.06,29.94,7,1,17,0.71
2013-2-13,87.6,71.7,61.9,68.4,53.2,-99.9,96,59,29,30.12,30.00,6,1,11,0.00
2013-2-14,87.5,71.2,58.6,65.5,55.4,-99.9,98,64,30,30.09,30.00,7,2,13,0.00
2013-2-15,82.3,69.8,63.3,67.5,60.1,-99.9,99,75,40,30.09,30.00,6,1,10,0.00
2013-2-16,88.4,73.3,62.8,72.0,57.8,-99.9,100,65,33,30.09,29.97,8,2,13,0.00
2013-2-17,85.2,71.3,60.4,70.4,56.0,-99.9,100,66,33,30.12,30.00,8,2,13,0.00
2013-2-18,88.2,72.4,61.2,70.5,57.9,-99.9,100,66,33,30.03,29.94,6,2,17,0.21
2013-2-19,90.5,74.4,62.2,70.4,62.4,-99.9,100,71,38,29.94,29.83,7,2,13,0.00
2013-2-20,89.9,73.8,65.3,75.3,61.9,-99.9,100,74,39,29.97,29.83,10,2,17,0.08
2013-2-21,88.1,72.4,65.1,72.3,61.4,-99.9,100,75,42,30.00,29.88,8,2,14,0.25
2013-2-22,80.6,70.6,64.4,67.6,63.3,-99.9,100,80,52,29.94,29.85,7,2,15,0.37
2013-2-23,76.1,69.0,66.9,74.2,66.8,-99.9,100,97,86,29.88,29.62,10,4,23,3.40
2013-2-24,95.4,77.6,69.8,75.4,67.7,-99.9,100,78,41,29.88,29.68,9,3,17,0.00
2013-2-25,90.6,76.5,70.2,74.2,64.9,-99.9,100,74,45,29.97,29.83,9,3,15,0.00
2013-2-26,86.2,74.8,69.4,70.8,64.2,-99.9,98,73,45,29.97,29.88,9,4,15,0.00
2013-2-27,95.4,74.8,68.5,65.6,58.2,-99.9,89,64,28,29.94,29.77,8,3,15,0.00
2013-2-28,98.0,75.8,64.8,71.8,63.3,-99.9,100,72,31,29.80,29.65,6,2,11,1.08
2013-3-1,67.5,64.4,61.9,67.5,64.0,-99.9,100,100,100,29.91,29.68,6,4,13,6.72
2013-3-2,66.7,62.2,61.3,66.3,59.5,-99.9,100,97,93,30.00,29.91,6,3,15,1.87
2013-3-3,82.0,71.4,65.1,67.0,61.8,-99.9,100,75,47,30.03,29.94,8,3,16,0.04
2013-3-4,86.9,73.0,65.5,64.6,58.1,-99.9,91,64,39,30.06,29.94,8,3,17,0.00
2013-3-5,86.2,74.5,65.3,65.3,59.5,-99.9,93,63,38,30.06,29.97,8,3,17,0.00
2013-3-6,88.4,74.8,66.9,71.2,59.9,-99.9,97,65,35,30.06,29.94,9,3,17,0.00
2013-3-7,87.7,72.6,60.1,71.0,59.0,-99.9,100,69,38,30.06,29.94,8,2,16,0.00
2013-3-8,90.4,72.7,60.4,71.8,60.8,-99.9,100,72,34,30.12,30.00,7,2,12,0.00
2013-3-9,86.3,73.6,67.8,68.8,60.4,-99.9,93,68,37,30.09,30.00,8,2,14,0.00
2013-3-10,89.4,72.7,61.4,71.9,58.1,-99.9,100,68,35,30.06,29.94,8,2,14,0.00
2013-3-11,90.0,73.5,63.1,76.1,61.4,-99.9,100,72,39,30.06,29.94,6,2,13,0.30
2013-3-12,87.8,72.8,63.3,74.3,58.1,-99.9,100,68,39,30.06,29.94,6,2,12,0.00
2013-3-13,89.3,72.9,59.9,70.3,59.0,-99.9,100,68,34,29.97,29.77,8,2,14,0.00
2013-3-14,89.5,72.6,61.2,69.2,60.1,-99.9,100,72,30,29.88,29.71,6,2,9,0.00
2013-3-15,73.7,67.9,66.4,71.7,63.4,-99.9,100,93,87,29.94,29.83,4,2,8,0.04
2013-3-16,96.0,75.9,63.0,75.2,64.4,-99.9,100,74,34,29.91,29.71,7,2,12,0.00
2013-3-17,79.5,70.7,63.3,68.7,54.4,-99.9,100,63,32,30.00,29.65,7,3,15,0.00
2013-3-18,80.6,65.3,53.7,61.2,51.2,-99.9,100,68,34,30.09,29.94,5,2,11,0.17
2013-3-19,82.1,68.0,55.8,66.8,56.2,51.2,100,71,36,30.21,30.06,7,2,12,0.00
2013-3-20,77.2,61.9,56.7,66.1,55.4,-99.9,100,85,53,30.18,30.09,6,1,14,0.00
2013-3-21,94.1,72.3,59.4,64.6,55.9,-99.9,96,64,27,30.09,29.88,7,2,13,0.00
2013-3-22,96.7,78.1,66.4,64.6,59.2,-99.9,92,58,30,29.91,29.83,8,4,17,0.00
2013-3-23,97.9,80.3,71.2,70.1,58.9,-99.9,90,52,27,29.97,29.83,7,3,15,0.00
2013-3-24,99.3,78.7,66.6,74.6,65.9,-99.9,100,72,24,29.94,29.77,6,2,13,0.00
2013-3-25,89.3,75.3,62.2,70.4,64.3,-99.9,100,74,45,30.03,29.85,5,2,10,0.00
2013-3-26,91.5,75.4,66.6,75.6,65.3,-99.9,100,77,40,30.03,29.91,7,2,13,0.04
2013-3-27,99.5,77.4,63.1,72.1,64.7,-99.9,100,71,30,30.03,29.91,6,2,13,0.00
2013-3-28,99.2,79.8,65.5,70.0,64.0,56.1,99,65,26,30.00,29.85,7,2,13,0.04
2013-3-29,80.4,67.6,59.2,69.8,51.6,-99.9,100,63,37,30.03,29.83,6,2,11,0.12
2013-3-30,81.1,67.1,53.8,64.6,52.9,-99.9,100,67,35,30.00,29.80,8,2,11,0.00
2013-3-31,82.1,68.8,60.7,65.1,55.4,-99.9,100,68,31,29.91,29.71,5,1,10,0.47
2013-4-1,83.3,67.3,58.5,67.5,58.3,-99.9,100,79,43,30.00,29.88,5,2,10,0.30
2013-4-2,89.0,69.6,57.9,67.3,55.0,-99.9,100,69,29,29.97,29.85,7,1,12,0.00
2013-4-3,69.6,63.3,60.2,67.1,62.2,-99.9,100,97,78,30.15,29.94,5,1,10,0.95
2013-4-4,72.7,63.1,59.0,67.8,60.5,-99.9,100,94,68,30.27,30.12,4,1,10,0.83
2013-4-5,83.7,68.7,59.3,68.8,55.7,-99.9,100,70,33,30.30,30.21,8,2,14,0.00
2013-4-6,67.3,60.9,58.5,61.7,58.7,-99.9,100,95,75,30.27,30.12,3,0,5,0.00
2013-4-7,86.4,66.1,56.2,67.2,57.3,-99.9,100,78,40,30.15,30.06,6,1,10,0.00
2013-4-8,83.6,67.3,55.1,68.1,56.2,-99.9,100,74,41,30.18,30.06,6,1,10,0.00
2013-4-9,81.7,64.3,58.1,67.7,58.2,-99.9,100,86,47,30.21,30.12,6,1,9,0.04
2013-4-10,83.0,67.4,55.3,70.3,56.7,-99.9,100,75,40,30.15,30.06,5,1,11,0.00
2013-4-11,89.0,68.5,53.5,65.9,55.6,-99.9,100,71,30,30.18,30.06,6,1,10,0.00
2013-4-12,84.5,69.9,57.9,70.1,58.0,-99.9,100,72,39,30.18,30.09,5,2,12,0.00
2013-4-13,84.6,68.5,56.3,68.6,57.2,-99.9,100,74,41,30.09,29.88,6,2,12,0.00
2013-4-14,90.1,70.7,55.9,68.8,57.6,-99.9,100,71,35,29.91,29.77,5,1,8,0.00
2013-4-15,93.7,69.5,56.5,67.0,56.9,-99.9,100,73,28,29.83,29.65,4,1,7,0.00
2013-4-16,76.9,63.7,61.3,67.6,55.8,-99.9,100,85,57,29.88,29.74,7,2,11,0.08
2013-4-17,80.3,65.5,55.8,66.9,56.8,-99.9,100,80,45,29.91,29.83,5,1,10,0.00
2013-4-18,84.7,67.1,57.9,67.5,57.7,-99.9,100,78,40,29.85,29.77,5,1,10,0.00
2013-4-19,74.2,62.9,55.6,59.0,45.4,-99.9,100,60,32,29.85,29.77,7,3,13,0.00
2013-4-20,61.9,56.6,55.9,61.9,52.2,-99.9,100,90,48,29.91,29.71,6,3,11,1.11
2013-4-21,79.7,60.8,49.6,57.8,51.6,-99.9,100,77,33,29.91,29.80,6,1,8,0.00
2013-4-22,84.8,63.4,55.8,60.7,49.6,-99.9,100,71,29,29.80,29.68,6,1,9,0.00
2013-4-23,83.6,63.9,49.2,56.7,47.5,-99.9,100,65,29,29.91,29.74,6,2,11,0.00
2013-4-24,83.8,63.3,50.4,59.2,49.0,-99.9,100,68,26,30.00,29.88,5,1,10,0.00
2013-4-25,81.9,62.6,49.3,56.4,49.8,-99.9,100,70,31,30.09,29.94,4,1,8,0.00
2013-4-26,87.1,65.3,50.4,54.9,47.5,-99.9,100,60,25,30.09,30.00,5,1,10,0.00
2013-4-27,88.5,65.2,50.0,61.4,50.5,-99.9,100,68,28,30.09,29.94,4,1,7,0.00
2013-4-28,90.0,70.0,56.0,56.6,45.8,-99.9,97,48,21,30.03,29.94,6,2,12,0.00
2013-4-29,89.8,69.2,55.4,64.3,52.7,-99.9,100,61,27,30.15,29.97,6,1,9,0.00
2013-4-30,81.3,68.6,62.7,70.5,63.4,-99.9,100,88,57,30.15,30.06,5,2,8,0.00
2013-5-1,90.5,71.5,60.4,69.1,59.9,-99.9,100,75,29,30.06,29.83,6,2,12,0.00
2013-5-2,73.6,64.9,55.9,62.0,49.9,-99.9,87,61,39,30.24,29.94,6,3,13,0.00
2013-5-3,80.5,61.9,50.1,60.5,48.3,-99.9,100,70,31,30.21,30.00,5,1,8,0.00
2013-5-4,84.2,64.9,53.8,55.6,45.7,-99.9,93,53,26,30.12,29.91,7,3,12,0.00
2013-5-5,73.6,60.6,52.1,49.9,42.2,-99.9,87,55,37,30.15,30.06,7,2,11,0.00
2013-5-6,73.0,58.7,48.2,57.4,50.8,-99.9,100,80,47,30.21,30.06,5,2,10,0.04
2013-5-7,75.8,60.9,53.4,63.7,54.7,-99.9,100,85,48,30.27,30.12,4,1,6,0.05
2013-5-8,76.9,62.7,53.3,66.4,54.5,-99.9,100,80,45,30.30,30.21,6,1,9,0.00
2013-5-9,82.3,63.2,51.8,67.9,53.2,-99.9,100,77,35,30.33,30.24,6,1,8,0.00
2013-5-10,81.7,62.7,48.1,64.8,53.6,-99.9,100,78,35,30.30,30.24,4,1,7,0.00
2013-5-11,72.7,61.9,57.3,66.2,56.2,-99.9,100,87,65,30.30,30.18,5,1,9,0.00
2013-5-12,78.9,61.9,52.3,65.0,51.2,-99.9,100,78,43,30.24,30.06,6,1,10,0.00
2013-5-13,75.4,61.1,51.6,62.2,54.2,-99.9,100,84,45,30.06,29.83,4,1,8,0.00
2013-5-14,74.8,59.8,53.6,62.7,55.9,-99.9,100,92,53,29.83,29.74,5,1,8,0.00
2013-5-15,73.1,56.9,44.3,49.0,42.0,-99.9,100,64,32,29.85,29.77,7,2,13,0.00
2013-5-16,76.6,62.1,54.9,45.8,40.9,-99.9,66,48,31,29.83,29.68,8,4,14,0.00
2013-5-17,72.6,56.3,48.1,49.1,38.8,-99.9,91,59,28,29.85,29.71,8,3,13,0.13
2013-5-18,74.1,57.9,47.5,42.1,37.2,-99.9,71,50,28,29.91,29.77,6,2,13,0.00
2013-5-19,70.5,54.7,44.4,44.4,34.2,-99.9,80,51,30,29.94,29.83,7,2,12,0.00
2013-5-20,73.5,55.7,44.1,42.9,37.8,-99.9,80,55,29,29.94,29.83,7,2,13,0.00
2013-5-21,77.5,60.3,48.4,44.1,40.0,-99.9,78,51,29,29.91,29.77,7,3,13,0.00
2013-5-22,64.1,55.8,49.6,56.1,48.0,-99.9,100,78,57,29.85,29.65,4,1,6,0.00
2013-5-23,67.9,56.5,51.8,60.4,53.1,-99.9,100,92,60,29.85,29.65,7,2,13,0.00
2013-5-24,71.9,62.4,57.2,58.8,49.2,-99.9,100,67,44,29.97,29.83,7,4,17,2.52
2013-5-25,72.8,58.8,50.2,60.2,51.9,-99.9,100,83,46,30.12,29.97,5,2,9,0.00
2013-5-26,79.3,57.4,45.9,55.4,46.6,-99.9,100,75,28,30.18,30.06,5,1,8,0.00
2013-5-27,65.7,53.5,45.5,63.1,52.3,-99.9,100,98,82,30.27,30.09,4,1,6,0.09
2013-5-28,70.2,59.3,52.1,67.6,55.7,-99.9,100,91,62,30.33,30.24,4,1,7,0.00
2013-5-29,76.6,61.1,54.9,60.9,52.6,-99.9,100,80,43,30.30,30.21,4,1,7,0.00
2013-5-30,80.0,59.7,47.0,64.4,51.2,-99.9,100,81,35,30.27,30.15,4,1,8,0.16
2013-5-31,81.3,60.4,48.1,63.2,50.7,-99.9,100,79,37,30.21,30.12,5,1,8,0.00
2013-6-1,71.4,59.7,52.1,60.3,54.6,-99.9,100,87,53,30.09,29.83,5,1,10,0.00
2013-6-2,61.7,55.9,52.5,61.7,55.1,-99.9,100,98,79,29.83,29.56,8,2,18,0.00
2013-6-3,70.0,56.7,47.7,52.9,43.2,-99.9,100,65,37,30.03,29.83,7,3,13,0.00
2013-6-4,73.8,55.8,44.8,54.6,46.9,-99.9,100,79,42,30.15,30.00,5,1,9,1.12
2013-6-5,72.2,55.7,46.2,61.4,50.9,-99.9,100,87,49,30.15,30.03,5,1,8,0.00
2013-6-6,67.9,57.5,50.2,59.0,52.8,-99.9,100,87,52,30.09,29.97,5,1,9,0.00
2013-6-7,73.8,61.7,55.0,61.6,56.2,-99.9,100,87,57,30.09,29.94,6,1,12,0.00
2013-6-8,68.6,58.7,54.1,64.2,53.0,-99.9,100,86,53,30.27,30.12,4,1,6,0.29
2013-6-9,71.5,57.7,47.0,65.3,52.0,-99.9,100,86,49,30.21,30.06,5,1,10,0.00
2013-6-10,74.0,58.2,45.9,64.0,53.9,45.9,100,88,49,30.03,29.94,5,1,9,0.00
2013-6-11,76.5,59.7,49.3,62.4,50.1,-99.9,100,78,35,30.00,29.88,5,1,8,0.00
2013-6-12,73.0,55.7,49.2,66.3,52.2,-99.9,100,94,58,29.91,29.65,8,1,13,0.13
2013-6-13,69.7,57.7,49.5,61.6,49.1,-99.9,100,79,46,29.68,29.56,8,3,17,0.00
2013-6-14,69.4,58.0,52.0,53.2,46.7,-99.9,98,71,42,29.62,29.53,8,4,19,0.00
2013-6-15,69.8,58.0,53.1,52.7,42.6,-99.9,90,62,37,29.80,29.59,6,3,13,0.16
2013-6-16,68.1,55.3,45.5,48.2,39.1,-99.9,91,59,37,29.83,29.71,6,2,12,0.00
2013-6-17,65.7,52.4,43.8,49.0,40.9,-99.9,98,71,44,29.74,29.62,7,2,12,0.00
2013-6-18,69.0,55.1,42.4,48.9,43.3,37.6,100,70,34,29.85,29.71,8,2,12,0.00
2013-6-19,65.3,52.9,48.6,55.5,48.0,-99.9,100,88,48,30.06,29.83,6,3,15,0.21
2013-6-20,64.9,52.2,46.4,52.7,47.4,-99.9,100,88,53,30.06,29.94,5,1,11,0.00
2013-6-21,67.4,52.0,45.3,54.0,46.6,-99.9,100,86,51,30.00,29.91,5,1,10,0.00
2013-6-22,67.6,52.9,43.1,55.8,46.5,-99.9,100,83,48,30.12,29.97,5,2,10,0.08
2013-6-23,66.4,53.6,48.4,60.7,52.5,-99.9,100,97,69,30.18,30.06,5,1,7,0.00
2013-6-24,71.4,55.0,47.1,57.7,49.1,-99.9,100,85,42,30.06,29.83,5,1,8,0.00
2013-6-25,66.6,51.5,43.8,52.2,44.7,-99.9,100,83,46,29.85,29.77,4,1,9,1.46
2013-6-26,68.3,57.7,47.1,63.9,52.9,-99.9,100,88,66,29.97,29.80,5,2,15,0.00
2013-6-27,59.9,57.4,56.1,59.9,56.1,-99.9,100,99,91,30.03,29.94,4,1,9,0.00
2013-6-28,68.9,56.5,53.1,65.5,55.8,-99.9,100,99,79,30.06,29.94,4,1,8,1.49
2013-6-29,64.5,57.3,54.5,61.5,55.8,-99.9,100,97,82,30.06,29.97,6,1,12,0.38
2013-6-30,57.2,53.4,51.0,57.2,51.3,-99.9,100,98,100,30.12,30.00,3,1,7,0.00
2013-7-1,68.7,56.6,50.8,64.3,54.8,-99.9,100,96,76,30.12,30.00,5,1,9,0.00
2013-7-2,72.7,56.0,47.8,57.7,49.0,-99.9,100,83,49,30.09,30.00,5,1,8,1.28
2013-7-3,73.3,55.0,42.7,62.8,47.4,-99.9,100,83,41,30.15,30.03,4,1,7,0.00
2013-7-4,75.9,57.8,44.9,52.7,45.2,-99.9,100,71,36,30.03,29.80,9,3,23,0.00
2013-7-5,75.7,61.7,49.0,56.1,44.2,-99.9,100,59,30,29.91,29.71,7,3,14,0.00
2013-7-6,66.6,52.9,37.6,44.0,33.0,29.1,87,48,33,30.06,29.91,7,2,12,0.00
2013-7-7,72.3,52.8,41.2,41.9,35.4,-99.9,80,56,29,30.21,30.06,5,1,7,0.00
2013-7-8,70.4,50.9,36.1,52.1,39.4,-99.9,100,73,32,30.30,30.18,5,1,9,0.00
2013-7-9,61.0,51.1,45.2,58.5,50.1,-99.9,100,99,84,30.39,30.24,4,1,6,0.29
2013-7-10,53.8,48.9,47.8,53.8,48.0,-99.9,100,99,100,30.36,30.27,3,0,4,0.00
2013-7-14,60.9,53.6,50.9,52.6,51.6,50.3,100,94,69,30.18,30.12,1,0,2,0.00
2013-7-15,72.1,58.9,53.1,60.8,56.2,53.1,100,92,56,30.15,30.06,3,0,5,0.00
2013-7-16,77.5,61.2,53.1,64.7,55.1,-99.9,100,84,41,30.18,30.06,5,1,9,0.00
2013-7-17,80.5,60.5,51.2,62.4,50.4,-99.9,100,79,37,30.15,30.06,6,1,13,0.00
2013-7-18,81.0,60.8,48.2,63.4,54.2,-99.9,100,84,41,30.12,30.00,4,1,7,0.00
2013-7-19,75.7,60.4,54.7,61.7,55.4,-99.9,100,88,47,29.97,29.83,6,1,14,0.00
2013-7-20,73.1,60.1,54.9,59.2,47.1,-99.9,100,71,34,29.80,29.59,8,3,16,0.00
2013-7-21,65.2,53.0,40.7,42.5,32.4,-99.9,97,50,28,29.97,29.83,8,3,14,0.00
2013-7-22,67.6,51.3,38.3,42.2,30.6,-99.9,90,52,28,30.03,29.88,9,2,17,0.00
2013-7-23,70.0,53.1,40.6,39.8,33.7,-99.9,75,51,32,30.06,29.88,8,3,13,0.00
2013-7-24,65.8,55.7,47.5,45.6,39.9,-99.9,72,57,47,30.24,30.00,7,3,15,0.00
2013-7-25,72.7,55.7,45.1,51.7,44.6,-99.9,100,72,32,30.27,30.18,5,1,8,0.00
2013-7-26,72.4,54.9,41.0,49.8,42.1,-99.9,100,69,31,30.21,30.06,7,2,14,0.00
2013-7-27,72.4,55.6,44.7,56.0,46.8,-99.9,100,78,42,30.30,30.18,4,1,6,0.00
2013-7-28,71.5,54.5,41.8,59.7,47.9,-99.9,100,85,48,30.27,30.18,5,1,9,0.00
2013-7-29,80.1,60.8,44.1,60.0,49.0,-99.9,100,72,31,30.21,30.06,5,1,9,0.00
2013-7-30,77.1,60.1,45.5,57.2,48.4,-99.9,100,72,33,30.03,29.94,4,1,10,0.00
2013-7-31,70.0,59.2,54.0,62.7,52.3,-99.9,100,81,48,30.12,29.97,5,3,13,0.46
2013-8-1,73.5,55.6,46.2,58.1,47.4,-99.9,100,80,42,30.12,30.00,7,1,10,0.00
2013-8-2,74.8,56.0,44.9,60.3,43.2,-99.9,100,72,31,30.00,29.83,7,2,13,0.00
2013-8-3,72.9,64.4,57.2,40.8,36.8,-99.9,49,37,29,29.94,29.77,8,4,17,0.00
2013-8-4,72.0,56.7,48.7,41.5,36.9,-99.9,69,51,32,29.94,29.77,9,4,17,0.00
2013-8-5,71.2,55.7,43.2,39.9,35.7,-99.9,79,51,32,29.97,29.83,8,3,15,0.00
2013-8-6,78.6,60.6,45.2,41.5,35.6,-99.9,78,44,26,29.88,29.71,11,4,24,0.00
2013-8-7,70.2,58.8,52.1,53.0,44.7,-99.9,100,64,41,29.80,29.68,6,2,10,0.04
2013-8-8,60.1,51.1,48.6,52.6,43.5,-99.9,100,83,42,29.85,29.59,8,4,18,0.03
2013-8-9,72.2,57.3,43.5,50.9,40.7,-99.9,100,60,32,29.97,29.83,6,2,11,0.00
2013-8-10,80.8,63.3,53.0,45.9,37.6,-99.9,74,42,25,29.91,29.80,8,3,16,0.00
2013-8-11,81.2,60.3,45.4,51.3,43.5,-99.9,97,61,25,29.94,29.83,6,1,9,0.00
2013-8-12,84.6,63.8,48.7,53.8,42.6,-99.9,94,53,21,29.80,29.53,13,4,23,0.00
2013-8-13,76.4,57.5,43.1,38.8,29.3,-99.9,70,39,22,29.88,29.77,7,3,15,0.00
2013-8-14,78.0,61.6,48.2,40.1,31.8,-99.9,54,35,21,29.85,29.65,9,3,17,0.00
2013-8-15,70.9,58.4,46.4,37.7,30.5,-99.9,72,37,24,30.03,29.68,8,3,18,0.00
2013-8-16,74.2,57.6,37.2,52.6,42.5,35.5,100,63,27,30.09,29.85,6,2,14,0.00
2013-8-17,77.1,62.8,51.0,54.5,48.0,-99.9,100,64,35,29.83,29.65,12,4,24,0.00
2013-8-18,76.6,60.7,45.3,40.5,34.2,-99.9,64,40,23,29.94,29.80,8,3,17,0.00
2013-8-19,77.3,61.1,48.4,38.3,30.7,-99.9,55,34,23,29.80,29.59,10,4,23,0.00
2013-8-20,70.2,54.2,42.9,32.7,26.3,-99.9,59,36,23,29.85,29.71,9,4,15,0.00
2013-8-21,70.8,51.5,39.4,38.2,31.8,-99.9,72,49,28,29.85,29.77,6,2,10,0.00
2013-8-22,72.2,54.3,39.0,38.4,31.9,-99.9,88,48,26,29.83,29.71,9,4,15,0.00
2013-8-23,71.2,58.9,50.1,40.3,35.7,-99.9,56,43,32,29.80,29.68,11,5,24,0.00
2013-8-24,76.8,62.1,52.3,49.7,43.8,-99.9,91,56,31,30.09,29.83,7,3,11,0.00
2013-8-25,83.5,62.4,44.1,56.7,45.0,-99.9,100,63,21,30.12,30.00,8,2,14,0.00
2013-8-26,80.3,60.3,46.5,51.8,45.4,-99.9,99,63,26,30.12,30.00,6,2,10,0.00
2013-8-27,79.0,60.8,47.9,60.4,46.7,-99.9,100,69,30,30.06,29.94,7,1,11,0.00
2013-8-28,79.4,59.9,47.2,64.1,45.6,-99.9,100,71,30,30.09,29.94,6,1,12,0.00
2013-8-29,76.3,61.3,49.1,63.4,51.4,-99.9,100,77,42,30.12,29.97,8,2,14,0.00
2013-8-30,89.6,70.8,58.6,60.0,50.3,-99.9,98,57,23,29.94,29.80,8,3,15,0.00
2013-8-31,84.1,65.0,53.5,54.7,43.2,-99.9,91,51,21,30.15,29.91,9,2,13,0.00
2013-9-1,80.1,63.6,50.2,63.2,53.1,-99.9,100,76,33,30.27,30.12,6,2,11,0.00
2013-9-2,79.5,63.2,50.2,65.1,51.5,-99.9,100,73,33,30.36,30.21,6,2,10,0.00
2013-9-3,77.5,63.2,50.2,64.8,53.0,-99.9,100,76,42,30.42,30.30,6,2,12,0.00
2013-9-4,79.6,62.9,49.1,61.0,50.6,-99.9,100,71,36,30.39,30.24,7,2,13,0.00
2013-9-5,90.5,67.4,48.7,60.9,49.1,-99.9,100,63,21,30.27,30.12,7,2,14,0.00
2013-9-6,83.2,69.2,60.3,66.8,51.7,-99.9,100,59,30,30.21,30.12,6,2,10,0.00
2013-9-7,92.5,73.9,60.3,66.2,46.7,-99.9,100,46,18,30.12,30.03,7,3,13,0.00
2013-9-8,73.4,65.0,62.9,65.7,57.1,-99.9,100,83,57,30.18,30.09,6,2,10,0.00
2013-9-9,83.5,69.4,64.3,67.0,59.8,-99.9,100,79,39,30.15,29.83,6,2,9,0.00
2013-9-10,91.2,75.8,63.4,65.2,43.6,-99.9,100,37,18,29.77,29.53,13,5,30,0.00
2013-9-11,85.3,67.1,50.2,48.1,36.2,-99.9,65,36,18,29.83,29.65,7,2,13,0.00
2013-9-12,81.7,63.1,47.6,54.0,39.7,-99.9,80,47,21,29.88,29.74,8,2,13,0.00
2013-9-13,70.9,60.0,51.6,49.0,44.7,-99.9,82,60,37,30.03,29.91,7,4,13,0.00
2013-9-14,83.6,66.4,56.9,62.2,55.7,-99.9,100,74,30,29.88,29.68,9,4,16,0.21
2013-9-15,73.7,61.8,51.4,61.4,52.6,-99.9,100,76,46,30.00,29.83,8,2,11,0.00
2013-9-16,66.8,58.4,50.9,61.9,54.0,-99.9,100,91,67,29.94,29.65,8,3,13,0.17
2013-9-17,77.0,64.6,56.3,62.4,53.6,-99.9,100,73,38,29.56,29.44,9,4,16,0.00
2013-9-18,82.3,66.8,57.1,57.6,45.9,-99.9,97,56,22,29.59,29.47,11,5,22,0.00
2013-9-19,80.7,66.8,51.9,47.8,36.9,-99.9,79,38,21,29.68,29.50,10,4,19,0.13
2013-9-20,78.1,62.4,48.7,41.8,34.0,-99.9,68,38,20,29.80,29.59,10,5,20,0.00
2013-9-21,76.6,61.9,48.0,47.0,40.5,-99.9,79,49,28,29.85,29.77,8,2,13,0.00
2013-9-22,83.8,63.3,46.2,58.7,48.8,-99.9,100,67,23,29.91,29.77,7,2,11,0.00
2013-9-23,96.4,70.5,50.7,61.2,44.9,-99.9,100,53,16,29.83,29.65,9,2,17,0.00
2013-9-24,93.2,70.3,60.5,49.5,40.9,-99.9,62,37,17,29.68,29.47,6,1,12,0.00
2013-9-25,96.6,73.7,56.2,51.1,41.2,-99.9,67,36,17,29.77,29.65,7,3,10,0.00
2013-9-26,97.9,75.6,54.3,53.9,39.5,-99.9,90,34,13,29.85,29.56,13,4,28,0.00
2013-9-27,79.6,64.6,50.6,49.3,34.9,-99.9,65,35,21,30.06,29.88,8,3,15,0.04
2013-9-28,93.4,71.1,48.4,56.7,39.2,-99.9,100,44,12,29.85,29.65,12,4,24,0.00
2013-9-29,80.2,65.9,50.9,57.0,41.1,-99.9,83,44,23,29.94,29.77,8,3,14,0.00
2013-9-30,94.2,69.2,49.0,60.7,44.3,-99.9,100,53,14,29.97,29.80,8,3,15,0.00
2013-10-1,94.9,69.1,61.3,65.8,43.8,-99.9,89,45,22,29.83,29.56,14,4,26,0.00
2013-10-2,84.6,68.3,48.0,53.3,37.3,-99.9,96,39,19,29.94,29.68,11,3,18,0.00
2013-10-3,75.0,59.5,49.0,55.5,40.2,-99.9,100,55,25,30.00,29.59,9,3,17,0.16
2013-10-4,74.3,58.8,46.1,53.0,44.5,-99.9,100,66,32,30.06,29.94,8,3,15,0.00
2013-10-5,93.3,68.5,46.3,60.1,42.0,-99.9,100,52,17,29.97,29.77,8,2,16,0.48
2013-10-6,99.1,76.2,54.5,47.5,37.6,-99.9,70,31,12,29.80,29.59,7,3,13,0.05
2013-10-7,76.8,67.9,62.5,63.9,46.5,-99.9,93,49,25,29.85,29.59,7,3,21,0.00
2013-10-8,75.1,62.8,54.0,60.7,47.9,-99.9,100,65,42,30.03,29.77,7,2,15,0.00
2013-10-9,96.0,68.7,48.4,60.0,43.2,-99.9,100,54,16,30.03,29.83,7,2,14,0.00
2013-10-10,98.3,79.8,63.1,44.3,36.4,-99.9,38,23,13,29.85,29.59,13,5,24,0.00
2013-10-11,79.2,68.4,63.1,62.7,52.1,-99.9,97,62,22,29.94,29.53,7,4,14,0.04
2013-10-12,89.7,69.8,52.9,65.4,54.0,-99.9,100,67,30,29.91,29.71,7,2,13,0.00
2013-10-13,101.1,79.9,63.7,66.1,47.7,-99.9,100,46,10,29.68,29.38,16,5,37,0.00
2013-10-14,73.3,62.6,52.9,63.9,45.9,-99.9,100,61,32,30.00,29.62,8,3,14,0.37
2013-10-15,87.2,63.1,45.4,44.1,36.1,-99.9,75,44,18,30.12,29.94,7,2,13,0.00
2013-10-16,92.6,67.1,45.3,48.0,38.4,-99.9,98,43,14,30.00,29.83,8,3,16,0.00
2013-10-17,98.3,76.8,58.8,47.1,37.5,-99.9,56,28,12,29.91,29.59,14,5,30,0.00
2013-10-18,73.0,63.2,54.8,48.1,36.4,-99.9,71,39,23,30.21,29.94,8,3,13,0.00
2013-10-19,79.5,64.2,47.7,63.2,47.9,-99.9,100,65,25,30.24,30.12,7,2,16,0.00
2013-10-20,90.9,70.6,55.8,67.1,57.1,-99.9,100,70,29,30.15,29.94,7,3,14,0.00
2013-10-21,105.6,78.6,57.9,69.9,54.2,-99.9,100,56,14,29.97,29.80,7,3,14,0.00
2013-10-22,88.4,72.1,64.6,69.9,60.1,-99.9,100,73,42,29.91,29.80,7,3,11,0.04
2013-10-23,100.5,81.0,66.9,68.2,53.3,-99.9,100,51,14,29.77,29.56,14,4,27,3.83
2013-10-24,89.4,70.8,57.2,57.9,41.6,-99.9,79,42,15,30.03,29.77,10,3,19,0.00
2013-10-25,76.6,62.7,47.7,51.9,37.7,-99.9,65,43,21,30.15,29.94,8,3,17,0.00
2013-10-26,80.6,62.9,49.5,52.5,43.7,-99.9,100,59,22,30.09,29.94,7,2,13,0.00
2013-10-27,79.0,64.8,53.0,62.2,49.8,-99.9,100,65,33,30.12,30.00,8,3,15,0.00
2013-10-28,85.6,69.7,61.5,64.5,55.4,-99.9,100,67,33,30.06,29.83,7,2,12,0.16
2013-10-29,91.5,65.5,58.5,65.1,54.4,-99.9,100,76,27,29.91,29.59,9,3,18,0.13
2013-10-30,77.8,64.4,56.1,60.0,51.2,-99.9,100,69,33,30.06,29.88,6,2,13,0.00
2013-10-31,79.6,63.2,49.9,63.5,48.7,-99.9,100,68,33,30.12,29.97,9,2,17,0.00
2013-11-1,78.8,67.5,59.9,64.4,55.2,-99.9,100,68,42,30.15,30.03,7,3,15,0.00
2013-11-2,102.3,73.4,55.6,67.0,53.2,-99.9,100,61,15,30.06,29.83,7,2,16,0.00
2013-11-3,101.3,75.0,60.6,66.3,47.5,-99.9,100,50,12,30.03,29.68,10,3,21,0.00
2013-11-4,73.3,64.0,59.7,45.5,39.2,-99.9,55,42,28,30.21,29.94,8,4,16,0.00
2013-11-5,76.8,63.5,54.3,49.3,44.2,-99.9,80,52,32,30.21,30.12,7,3,13,0.33
2013-11-6,81.0,64.3,49.8,60.8,48.6,-99.9,100,63,32,30.18,29.97,9,3,17,0.00
2013-11-7,93.4,70.0,51.8,63.9,53.0,-99.9,100,63,27,29.97,29.83,8,2,14,0.00
2013-11-8,102.2,79.4,60.4,63.2,52.2,-99.9,100,47,16,29.85,29.65,8,3,15,0.00
2013-11-9,103.0,77.5,65.3,67.2,55.9,-99.9,92,54,15,29.91,29.59,11,4,24,0.00
2013-11-10,75.2,65.4,59.5,63.4,53.4,-99.9,100,70,42,29.97,29.85,7,3,15,0.29
2013-11-11,76.0,64.8,60.5,70.3,62.5,-99.9,100,95,61,29.97,29.83,6,3,13,1.58
2013-11-12,82.4,66.5,58.5,70.9,62.4,-99.9,100,90,44,29.88,29.77,7,2,15,0.08
2013-11-13,88.0,70.5,56.7,74.7,55.6,-99.9,100,69,29,29.91,29.77,8,2,14,0.00
2013-11-14,83.9,69.6,56.5,63.3,52.4,-99.9,100,62,29,29.97,29.80,10,3,13,0.00
2013-11-15,82.2,68.4,58.6,67.7,56.8,-99.9,100,73,41,29.94,29.83,9,3,15,0.00
2013-11-16,75.5,66.0,58.0,65.6,56.6,-99.9,100,76,45,29.91,29.83,7,3,13,0.09
2013-11-17,60.4,58.3,56.0,60.4,57.6,-99.9,100,99,100,29.88,29.83,6,3,14,2.07
2013-11-18,75.7,63.8,59.5,72.5,60.0,-99.9,100,90,52,29.80,29.65,7,4,15,1.91
2013-11-19,80.5,66.1,57.4,71.1,60.8,-99.9,100,87,51,29.80,29.71,6,2,13,0.09
2013-11-20,83.5,69.7,58.1,74.8,61.8,-99.9,100,81,51,29.83,29.71,9,2,12,0.00
2013-11-21,83.2,71.2,63.1,70.0,63.0,-99.9,100,80,50,29.85,29.71,10,4,20,0.00
2013-11-22,76.8,67.2,64.7,71.8,64.2,-99.9,100,95,75,29.80,29.62,10,4,20,0.74
2013-11-23,79.1,65.8,60.3,72.5,63.4,-99.9,100,95,58,29.68,29.53,6,2,13,0.04
2013-11-24,80.2,67.4,57.2,68.9,56.1,-99.9,100,74,42,29.74,29.53,8,2,17,0.00
2013-11-25,79.6,64.1,59.5,67.2,56.8,-99.9,100,83,44,29.88,29.62,8,2,14,0.21
2013-11-26,81.0,65.2,55.4,57.8,49.1,-99.9,100,63,32,29.97,29.83,7,3,14,0.00
2013-11-27,84.3,67.4,54.1,61.8,53.4,-99.9,100,68,32,30.00,29.85,8,2,13,0.00
2013-11-28,94.9,73.7,55.3,65.8,57.7,-99.9,100,65,27,29.94,29.59,8,3,12,0.00
2013-11-29,74.0,64.8,60.6,70.2,60.1,-99.9,100,91,54,29.85,29.47,7,3,13,0.66
2013-11-30,78.0,64.0,56.1,66.6,55.4,-99.9,100,79,41,30.15,29.83,7,2,12,0.09
2013-12-1,79.6,66.3,54.3,64.5,54.2,-99.9,100,71,38,30.21,30.06,7,2,12,0.00
2013-12-2,82.0,68.0,54.7,66.5,51.3,-99.9,100,63,33,30.15,30.03,8,3,15,0.00
2013-12-3,82.1,67.6,54.0,66.0,53.3,-99.9,100,68,36,30.06,29.83,8,3,17,0.00
2013-12-4,99.0,74.9,56.5,65.6,55.7,-99.9,100,61,24,29.80,29.41,6,3,12,0.00
2013-12-5,88.1,72.1,57.7,75.1,50.3,-99.9,100,53,19,29.68,29.35,12,5,28,0.00
2013-12-6,78.6,64.1,51.8,48.6,38.5,-99.9,78,42,22,29.97,29.65,8,4,16,0.00
2013-12-7,84.7,66.3,51.8,66.0,50.0,-99.9,100,64,29,30.03,29.94,9,2,14,0.00
2013-12-8,87.4,71.7,55.4,70.5,53.5,-99.9,100,60,31,30.06,29.83,8,3,14,0.00
2013-12-9,102.9,79.5,59.4,64.3,56.0,-99.9,100,53,17,29.83,29.59,7,2,13,0.00
2013-12-10,98.8,83.4,68.9,69.2,54.2,-99.9,97,41,19,29.71,29.53,12,4,23,0.00
2013-12-11,87.4,73.8,64.9,70.6,62.2,-99.9,100,73,39,29.77,29.62,8,3,15,0.00
2013-12-12,84.0,72.1,62.1,70.3,61.9,-99.9,100,75,46,29.85,29.71,9,3,16,0.00
2013-12-13,91.9,74.5,60.6,70.6,64.1,-99.9,100,76,32,29.91,29.77,9,4,17,0.00
2013-12-14,89.3,72.1,64.2,72.7,62.5,-99.9,100,77,40,29.97,29.74,8,3,16,0.00
2013-12-15,83.7,70.2,60.4,70.2,58.1,-99.9,100,73,38,30.03,29.94,8,3,13,0.00
2013-12-16,83.0,72.0,64.8,67.9,61.3,-99.9,100,73,44,30.12,29.97,9,4,18,0.00
2013-12-17,85.6,70.3,59.0,68.3,55.8,-99.9,100,69,40,30.15,30.00,8,3,15,0.00
2013-12-18,85.9,72.5,63.1,68.3,58.0,-99.9,100,67,35,30.21,30.03,8,3,14,0.00
2013-12-19,86.5,71.5,59.7,67.4,55.6,-99.9,100,66,40,30.18,29.97,9,4,18,0.00
2013-12-20,113.2,84.0,62.7,67.9,60.1,-99.9,100,56,13,30.00,29.83,6,2,11,0.00
2013-12-21,87.0,76.2,70.7,72.2,64.3,-99.9,100,71,46,30.00,29.80,7,3,14,0.00
2013-12-22,101.4,80.9,69.8,74.3,65.5,-99.9,100,67,31,29.94,29.71,6,3,11,0.00
2013-12-23,100.9,82.4,69.2,73.1,56.4,-99.9,100,49,18,29.80,29.59,10,3,20,0.00
2013-12-24,73.0,68.4,65.1,71.4,66.1,-99.9,100,93,76,30.03,29.83,6,2,11,0.16
2013-12-25,70.2,67.4,66.6,70.2,66.6,-99.9,100,99,96,30.03,29.83,6,2,13,0.29
2013-12-26,86.4,72.5,66.2,72.0,63.3,-99.9,100,79,42,29.85,29.71,7,3,13,0.08
2013-12-27,85.3,73.2,62.6,72.3,62.9,-99.9,100,75,45,29.85,29.77,9,2,15,0.00
2013-12-28,86.4,73.2,62.8,69.7,64.1,-99.9,100,78,47,29.85,29.62,9,3,16,0.04
2013-12-29,81.2,71.2,66.4,72.0,59.9,-99.9,100,73,40,29.94,29.53,9,3,24,0.00
2013-12-30,82.6,69.6,60.1,62.9,52.8,-99.9,98,62,33,29.94,29.80,8,3,17,0.00
2013-12-31,88.3,72.0,57.9,71.1,59.5,-99.9,100,72,39,29.94,29.77,8,2,13,0.00
2014-1-1,88.2,73.4,62.6,70.8,62.0,-99.9,100,73,41,29.94,29.74,8,3,19,0.04
2014-1-2,106.6,80.6,70.0,74.8,59.7,-99.9,100,63,15,29.71,29.53,8,3,15,0.00